GSAT0211 (GALILEO 14) (41549 NORAD) Tracking and Keplerian Element Data

This shows tracking and keplerian element data for the satellite.

Feedback or suggestion? Click here.




ElementValue
Catalog41549
NameGSAT0211 (GALILEO 14)
Epoch Orbit1592
Epoch Day349.27444557
Epoch Year2018
RAAN297.0105
Inclination56.7355
Eccentricity0.0004026
Argument of Perigee299.4335
Mean Anonmoly60.5268
Mean Motion1.70474302
Decay Rate-3.5E-07
L11 41549U 16030A 18349.27444557 -.00000035 00000-0 00000+0 0 9994
L22 41549 56.7355 297.0105 0004026 299.4335 60.5268 1.70474302 15929

Live tracking and technical data element details for GSAT0211 (GALILEO 14) (NORAD 41549). GSAT0211 (GALILEO 14) can be tracked NOW for your location showing map with azimuth and elevation plus other details from your city location.

Track the satellite on the map from your city or location and see movement details for azimuth, elevation, latitude, longitude, range, height, and movement on the map or in text.







IsCatalogInMostPopularTable: catalog: 41549, numindb: 93
Update: records affected: 1



GetName: 41549 GSAT0211 (GALILEO 14)

Hit Count: updated at: Sun, 16 Dec 2018 11:01:29 GMT